COSMOS 2491 DEB, 44992

Orbit data source: Space-Track

COSMOS 2491 DEB, 44992 is space debris in LEO originally from a launch on Wed, 25 Dec 2013 UTC launched from the Plesetsk Missile And Space Complex (PKMTR). Debris objects in space refer to the collection of defunct objects orbiting the Earth. Examples of debris include non-operational satellites, rocket bodies, and fragments generated from explosions, collisions, or faulty payload assembly.

Loading next visibility...
Identifier
44992, 2013-076N
Orbit
LEO
Country
Flag of CISCIS
Related business
Manufacturer
TsNIIKhM
Mission
Spacecraft
Bus & Motor
Unknown
Mass
Unknown
Launch date (UTC)
2013-12-25 (12 years ago)
Launch vehicle
Unknown
Launch site
Plesetsk Missile And Space Complex (PKMTR)
Object type
Payload
Rocket body
Debris
Shape & HBR
Unknown shape, 0.1 m
Radar Cross Section
Medium (>0.1 m² and <1 m²)

Expand to show TLE details & history
Last TLE update: 1 week ago

TLE from 1 week ago
0 COSMOS 2491 DEB
1 44992U 13076N   26166.64277708  .00001913  00000-0  11483-1 0  9999
2 44992  82.4851 149.5356 0005008 138.4600 221.6869 12.56577870293620
Epoch: 2026-06-15T15:25Z
TLE epoch observation values (Epoch: 2026-06-15T15:25:35.939Z)
Latitude
-0.00002°
Longitude
14.20963°
Altitude
1,442.745 km
Speed
7.139 km/s
True Right ascension
09h 58m 08s
True Declination
0° 00' 00"
Sunlit
Object was in daylight at epoch
Visualization orbit readout
Latitude
Unknown
Longitude
Unknown
Altitude
Unknown
Speed
Unknown
Apparent Right ascension
Unknown
Apparent Declination
Unknown
Sunlit
N/A
Visualization observer readout
Local Sidereal Time
00:50:14
Azimuth
Unknown
Elevation
Unknown
Doppler factor
Unknown
Orbital elements
Apogee altitude
1,438.346 km
Perigee altitude
1,430.521 km
Semi-major axis
7,812.571 km
Eccentricity
0.0005
Inclination
82.4851°
RAAN
149.5356°
Arg. of periapsis
138.46°
True anomaly
221.64875°
Mean anomaly
221.6869°
Eccentric anomaly
221.66782°
Mean motion
3.14306 °/min
Orbital period
114.54 mins
BSTAR
0.011483
Loading maneuver chart data...
Computing Atmospheric mass density...
Loading historical data...
Loading historical data...
Loading historical data...
Loading historical data...
Loading historical data...
Loading historical data...
Loading historical data...

Documentation

Showing up to 5 results
|